AirNav   ATP
 
 883 users online  

5B1 John H Boylan State Airport (Island Pond)
Island Pond, Vermont, USA


FAA INFORMATION EFFECTIVE 04 JANUARY 2018

Location

FAA Identifier: 5B1
Lat/Long: 44-47-23.9000N / 071-49-35.1000W
44-47.398333N / 071-49.585000W
44.7899722 / -71.8264167
(estimated)
Elevation: 1194 ft. / 363.9 m (surveyed)
Variation: 17W (1985)
From city: 3 miles SE of ISLAND POND, VT
Time zone: UTC -5 (UTC -4 during Daylight Saving Time)
Zip code: 05846

Airport Operations

Airport use: Open to the public
Activation date: 04/1964
Control tower: no
ARTCC: BOSTON CENTER
FSS: BURLINGTON FLIGHT SERVICE STATION
NOTAMs facility: BTV (NOTAM-D service available)
Attendance: UNATNDD
Wind indicator: yes
Segmented circle: yes

Airport Communications

CTAF: 122.9
WX AWOS-3 at CDA (16 nm SW): 119.275 (802-626-4532)
WX AWOS-3 at EFK (18 nm W): 118.275 (802-334-4427)
  • UNICOM FREQUENCY 122.9

Nearby radio navigation aids

VOR radial/distance  VOR name  Freq  Var
BMLr306/28.9BERLIN VOR/DME110.4017W
YSCr200/31.6SHERBROOKE VOR/DME113.2017W

 
NDB name  Hdg/Dist  Freq  Var  ID
MAHN004/26.438617WGMA --. -- .-

Airport Services

Parking: hangars and tiedowns
Airframe service: NONE
Powerplant service: NONE
Bottled oxygen: NONE
Bulk oxygen: NONE

Runway Information

Runway 14/32

Dimensions: 2650 x 120 ft. / 808 x 37 m
Surface: turf, in good condition
Runway edge markings: 14/32 THLDS MARKED WITH YELLOW CONES.
RUNWAY 14  RUNWAY 32
Latitude: 44-47.518923N44-47.277943N
Longitude: 071-49.839993W071-49.329378W
Elevation: 1194.0 ft.1172.0 ft.
Gradient: 0.9%0.8% UP
Traffic pattern: leftleft
Runway heading: 141 magnetic, 124 true321 magnetic, 304 true
Obstructions: 78 ft. trees, 590 ft. from runway, 160 ft. left of centerline, 7:1 slope to clear69 ft. trees, 394 ft. from runway, 125 ft. left of centerline, 5:1 slope to clear

Airport Ownership and Management from official FAA records

Ownership: Publicly-owned
Owner: STATE OF VERMONT
ONE NATIONAL LIFE DRIVE, VERMONT
MONTPELIER, VT 05633-5001
Phone (802) 828-1735
Manager: GUY ROUELLE
VTRANS AVIATION PROGRAM, 186 INDUSTRIAL LANE - BERLIN
BARRE, VT 05641
Phone (802) 828-1735

Airport Operational Statistics

Aircraft based on the field: 5
Single engine airplanes: 3
Ultralights: 2
    
Aircraft operations: avg 34/month *
66% transient general aviation
32% local general aviation
3% military
* for 12-month period ending 31 May 2017

Additional Remarks

SKI OPERATIONS IN WINTER.

Instrument Procedures

There are no published instrument procedures at 5B1.

Some nearby airports with instrument procedures:

KCDA - Caledonia County Airport (16 nm SW)
KEFK - Northeast Kingdom International Airport (18 nm W)
KHIE - Mount Washington Regional Airport (28 nm SE)
KBML - Berlin Regional Airport (31 nm SE)
KMVL - Morrisville-Stowe State Airport (37 nm SW)
 
Loc | Ops | Rwys | IFR | FBO | Links
Com | Nav | Svcs | Stats | Notes


 
Area around 5B1 (John H Boylan State Airport (Island Pond))
 
Road maps at: MapQuest Bing Google
 
Aerial photo
WARNING: Photo may not be current or correct
Aerial photo of 5B1 (John H Boylan State Airport (Island Pond))
Do you have a better or more recent aerial photo of John H Boylan State Airport (Island Pond) that you would like to share? If so, please send us your photo.

 
Sectional chart

 
Airport distance calculator
Flying to John H Boylan State Airport (Island Pond)? Find the distance to fly.

From to 5B1

Sunrise and sunset
Times for 20-Jan-2018
 Local
(UTC-5)
 Zulu
(UTC)
Morning civil twilight06:4711:47
Sunrise07:1912:19
Sunset16:3821:38
Evening civil twilight17:1022:10

Current date and time
Zulu (UTC)  20-Jan-2018 14:50:17
Local (UTC-5)  20-Jan-2018 09:50:17
 
METAR
KCDA 
16nm SW 
201435Z AUTO 04004KT 10SM SCT041 M02/M05 A2960 RMK AO2 T10171055
KEFK 
18nm NW 
201435Z AUTO 24016G24KT 10SM SCT040 02/M04 A2959 RMK AO2 T00201040
K1V4 
24nm S 
201354Z AUTO M01/M05 A2957 RMK AO1 SLP025 T10111050
KHIE 
28nm SE 
201352Z AUTO 24005KT 10SM CLR M02/M04 A2959 RMK AO2 SLP033 T10221044
KBML 
30nm SE 
201352Z AUTO VRB05KT 10SM CLR 01/M05 A2953 RMK AO2 SLP013 T00111050
TAF
KHIE 
28nm SE 
201120Z 2012/2112 00000KT P6SM BKN120 FM201500 27011KT P6SM OVC050 FM202100 26008KT P6SM BKN250 FM210300 25006KT P6SM OVC050
NOTAMs
Click for the latest NOTAMs
NOTAMs are issued by the DoD/FAA and will open in a separate window not controlled by AirNav.

 

 
 

Would you like to see your business listed on this page?

 If your business provides an interesting product or service to pilots, flight crews, aircraft, or users of the John H Boylan State Airport (Island Pond), you should consider listing it here.  To start the listing process, click on the button below
 
Add a business
 

Other Pages about John H Boylan State Airport (Island Pond)

aviation.vermont.gov/...
 
Update a link
 
Copyright © AirNav, LLC. All rights reserved. Privacy Policy  Contact